KUIPER-00226

导读 | 豆包AI

KUIPER-00226是亚马逊柯伊伯(Project Kuiper)低轨卫星星座的一颗卫星,于2026年2月12日由法国发射升空。该卫星星座计划部署超3200颗低轨卫星,旨在为全球尤其是偏远未覆盖区域提供高速可靠的卫星宽带互联网服务。卫星配备多波束相控阵天线,支持灵活容量分配,采用Ka频段工作,可实现高速星间链路传输,是全球低轨卫星互联网建设的重要组成部分。

基本信息
目录编号:
67785
目录名称:
KUIPER-00226
国际标识:
2026-030X
轨道中心:
EARTH
卫星名称:
KUIPER-00226
卫星全名:
KUIPER-00226
卫星状态:
在轨 (已飞行30 天)
发射日期:
2026-02-12 UTC
国别 :
美国 (US)
星等 :
--
轨道信息
数据来源 国际轨道数据
星历时间: 2026-03-14T01:45:12+0800
21小时前
查看轨道信息
半长轴: 6851.981km
偏心率: 0.0019837
轨道倾角: 51.883°
近地点辐角 87.547°
升交点赤经 200.442°
平近点角 272.778°
近地点: 460.251km
远地点: 487.437km
周期: 94.077分钟
每日圈数: 15.306595
详细信息
使用方式:
暂无
2D轨道图
3D轨道图
轨道高度分析图
轨道倾角分析图
轨道综合分析图
查看轨道综合分析图